Location: Hardisty
(52.6744°N, 111.3058°W)
Time: 14:57:25
(UTC+00:00)

Tiangong - Pass Details

Date: 19 June 2023
Orbit: 374 x 385 km, 41.5° (Epoch: 21 September)

Event Time Altitude Azimuth Distance (km) Brightness Sun altitude
Rises 05:27:46 0° 239° (WSW) 2,230 1.7 -9.6°
Reaches altitude 10° 05:31:08 10° 200° (SSW) 1,376 0.3 -9.9°
Enters shadow 05:31:40 11° 190° (S) 1,334 0.1 -9.9°
